Dewpoint
54 55 54 54 55 55 55 54 55 56 55 56 56 55 55 55 54 53 52 52 53 52 53 53 53 53 54 55 54 53 53 53 51 53 55 55 55 55 54 56 55 55 55
54 54 53 53 54 54 54 55 56 55 55 55 55 55 55 55 54 53 51 51 52 52 52 53 52 53 54 54 54 53 54 55 53 51 54 54 54 55 55 55 53 52 53
54 53 52 52 53 54 54 54 54 55 55 55 55 54 54 54 53 52 52 50 50 52 52 52 51 51 53 54 53 54 54 54 55 54 53 54 55 53 53 52 51 49 45
53 52 51 52 53 53 53 54 53 54 55 54 54 54 54 54 54 53 53 52 51 51 52 53 52 51 51 52 53 54 54 54 54 53 53 53 54 54 52 52 48 44 42
53 52 51 52 52 53 53 53 53 53 53 54 54 55 54 54 53 53 53 53 53 52 53 53 53 52 48 50 53 53 53 53 53 52 51 52 52 46 48 49 46 37 33
53 53 52 52 52 53 53 53 53 52 52 53 52 53 54 53 46 46 50 53 52 52 51 52 51 48 48 44 41 41 48 53 52 52 51 50 51 48 42 41 37 35 33
55 54 53 52 52 53 53 52 52 52 52 52 52 52 53 53 44 44 44 53 53 52 52 51 51 50 46 41 36 35 34 33 32 44 49 44 39 39 37 35 35 33 28
55 55 54 54 53 52 52 52 52 52 52 52 52 52 52 52 42 43 42 53 54 54 54 54 53 52 47 41 37 33 33 33 33 33 33 32 32 33 33 32 29 26 25
42 43 45 47 52 54 53 53 53 53 53 52 52 51 51 51 43 41 42 50 51 51 52 53 53 54 41 39 34 32 30 30 31 31 30 30 29 30 31 31 29 27 23
37 37 38 39 42 43 44 52 54 54 53 53 46 39 37 44 37 40 42 48 46 43 35 35 35 44 36 35 35 31 27 27 25 24 24 24 24 25 25 25 27 26 23
33 33 34 35 36 37 40 40 42 51 39 35 33 33 34 34 36 37 39 45 38 33 32 32 32 33 33 33 32 29 26 24 23 22 21 21 21 21 21 23 23 24 20
31 31 31 32 33 34 35 36 36 36 34 32 31 31 31 33 34 35 36 35 34 33 32 31 31 31 30 29 27 27 25 23 22 20 19 18 18 19 19 20 21 19 17
30 30 30 30 31 31 32 32 33 32 31 30 30 29 29 30 31 32 32 32 31 30 30 30 29 28 27 26 26 25 23 21 19 17 16 17 18 18 19 19 17 14 12
28 28 28 28 29 30 30 30 30 31 31 30 29 28 28 28 27 27 26 26 25 25 23 23 22 22 22 21 21 21 21 21 19 17 16 16 16 15 14 15 14 13 10
27 26 26 26 27 27 28 29 29 30 30 28 28 28 25 24 26 26 26 27 26 25 26 24 23 22 20 19 19 18 19 17 16 16 15 14 13 12 11 11 9 8 9
26 25 26 25 25 25 25 26 29 29 29 29 28 27 28 28 28 27 26 25 24 24 24 22 21 21 19 17 16 15 14 14 13 13 13 12 11 10 8 9 9 9 8
26 26 24 23 23 23 22 23 22 25 28 28 28 28 28 27 27 26 25 23 22 22 23 21 21 20 18 15 14 12 12 12 12 11 10 10 9 9 9 8 8 8 7
23 22 24 23 23 22 21 21 21 19 19 20 25 26 26 25 24 23 21 21 20 19 19 18 17 16 14 13 12 10 9 9 8 7 8 9 9 8 7 6 6 8 7
22 22 22 22 21 20 20 20 19 19 19 19 19 16 18 19 19 19 18 18 16 14 13 13 14 12 11 10 12 11 11 9 8 8 7 6 8 7 6 5 5 3 5
21 20 21 21 21 20 19 18 17 16 15 15 14 15 15 15 14 14 15 15 14 12 11 9 9 10 11 10 11 10 9 8 7 6 7 7 8 8 6 6 6 7 5
21 20 19 19 19 18 17 15 14 13 12 11 10 10 9 11 11 11 10 11 11 10 10 9 10 10 10 10 8 9 7 8 6 5 6 5 6 6 5 6 6 5 3
20 19 19 18 17 16 15 14 13 11 9 9 8 7 7 10 9 8 8 9 9 9 9 8 8 8 8 7 7 8 6 6 5 5 5 4 5 5 5 4 5 5 4
18 18 16 15 14 12 12 10 10 10 9 8 7 6 7 7 7 6 6 7 6 6 6 6 6 4 5 6 7 7 5 5 4 5 4 5 4 5 5 4 3 4 3
17 16 13 13 12 11 11 10 8 6 6 6 6 6 5 5 5 4 5 5 5 5 5 4 4 3 3 5 6 6 4 5 5 3 1 2 3 2 3 2 3 1 2
14 13 12 11 10 10 9 8 7 7 6 6 5 4 3 4 3 4 4 3 1 3 1 2 3 2 2 1 2 2 1 -1 1 -1 2 -0 -1 -3 -1 1 0 1 1
10 10 10 10 10 9 8 7 7 6 5 5 4 4 3 2 1 2 1 -0 -1 -1 -0 0 -0 -1 -1 1 1 -1 -2 -3 -3 -6 -1 0 -0 1 1 -0 -2 1 1
Lifted_Index
-1 -1 -1 1 3 3 3 2 2 3 3 3 3 3 3 3 3 3 4 5 7 7 6 6 6 6 6 5 6 6 5 4 3 2 2 2 2 2 2 2 2 2 2
-1 -1 -1 1 3 3 3 2 2 3 3 3 3 3 3 3 3 3 4 5 6 7 7 6 6 6 6 6 6 6 5 4 3 2 2 2 2 2 2 2 2 2 2
-2 -1 -0 2 4 3 3 2 2 3 3 3 3 4 4 4 4 4 5 5 6 7 7 7 6 6 6 6 6 5 5 4 3 2 2 2 2 2 2 2 2 2 2
-2 -2 0 3 4 4 3 3 2 3 3 3 4 4 4 4 4 5 5 6 6 7 7 7 6 6 6 6 6 5 5 4 3 2 2 2 2 2 1 1 1 1 1
-2 -1 0 2 4 4 3 3 3 3 3 3 4 4 4 4 5 5 5 6 6 7 7 6 6 6 6 6 5 5 4 4 3 3 2 2 2 2 2 1 1 1 1
-1 -1 -0 2 3 4 4 3 3 3 3 4 4 4 4 4 5 5 5 5 5 6 6 6 5 5 5 5 5 5 4 4 3 3 3 3 2 2 2 1 1 1 1
-0 -0 0 1 2 3 3 3 3 3 4 4 4 4 4 4 4 4 5 5 5 5 5 5 5 5 5 5 5 4 4 3 3 3 3 3 3 2 2 2 2 2 2
0 1 1 1 1 1 2 2 3 3 4 4 4 4 4 4 4 4 4 5 5 5 4 4 4 4 4 4 4 4 4 3 4 4 4 4 3 3 3 3 3 3 4
1 1 1 1 1 1 1 1 2 2 3 3 4 4 4 4 4 4 4 4 4 4 4 4 4 4 4 4 4 4 4 4 4 4 5 5 6 6 7 7 6 6 6
1 1 1 1 2 2 1 1 1 1 2 2 3 3 4 4 3 3 3 4 4 4 3 3 3 3 3 4 4 4 4 5 6 6 7 9 11 12 12 12 11 10 10
2 1 1 1 1 1 1 1 1 1 1 2 2 2 3 3 3 3 3 3 3 3 3 3 3 3 4 5 6 6 7 8 10 11 11 13 14 15 16 17 17 17 16
3 3 2 2 2 2 2 1 1 2 2 2 2 2 2 2 3 3 3 3 4 4 4 4 5 5 6 8 10 11 12 13 14 15 15 15 16 18 19 20 22 23 23
5 5 4 4 4 3 3 3 2 2 2 2 2 2 2 3 4 4 4 5 5 6 6 7 9 10 11 13 15 16 17 17 17 16 16 17 19 21 23 24 25 26 26
6 6 5 5 5 5 5 4 4 4 4 3 3 3 3 4 6 7 8 8 9 9 10 11 13 13 14 16 18 19 19 19 18 18 18 19 22 24 25 26 26 26 25
7 7 7 7 7 6 6 6 7 7 7 6 6 6 7 8 10 11 11 12 12 13 13 14 15 15 16 17 18 18 19 19 19 20 21 22 23 24 25 25 25 24 23
7 7 8 8 8 7 7 7 9 11 12 12 12 12 12 13 14 15 15 15 15 15 15 15 15 15 16 16 17 18 19 20 21 22 23 23 23 23 24 24 24 23 23
8 8 9 9 9 9 8 8 9 11 13 14 15 16 16 17 17 17 17 17 17 16 16 15 15 16 17 17 18 19 21 22 23 24 24 24 23 23 23 23 23 23 23
9 9 10 10 11 11 10 10 10 11 12 14 16 17 17 17 17 18 18 17 17 17 17 17 18 18 20 21 21 22 23 24 24 24 24 24 24 24 23 23 23 23 23
10 10 11 12 12 12 12 12 12 12 12 13 15 17 17 17 17 18 18 18 18 18 19 20 21 22 23 23 23 23 23 24 24 24 24 24 24 24 23 23 23 23 23
12 12 12 13 13 14 14 13 13 13 14 14 15 17 18 18 18 19 20 20 20 21 22 23 23 24 24 24 24 24 23 23 23 24 24 24 24 24 23 23 23 23 23
14 14 14 14 15 15 15 15 15 15 15 15 17 19 20 21 20 21 21 22 22 23 23 23 23 24 24 24 24 24 23 23 23 23 24 24 24 23 23 23 23 23 23
16 16 16 16 16 16 16 16 16 17 17 18 19 21 22 22 22 22 22 22 22 23 23 23 23 24 24 24 24 24 24 23 24 24 24 24 24 23 23 23 23 23 22
17 17 17 17 17 17 17 18 18 19 20 20 21 22 23 23 23 22 22 22 23 23 24 24 24 24 24 25 25 25 24 24 25 25 24 24 24 23 23 23 22 22 22
18 18 17 17 18 18 19 19 20 21 21 22 22 23 23 23 23 23 23 23 23 24 24 24 24 24 25 25 25 25 25 25 25 25 25 24 24 23 23 22 22 21 21
19 19 19 19 19 20 20 21 21 21 22 22 23 23 23 24 24 24 24 24 24 24 24 24 24 24 25 25 25 25 25 25 25 25 25 24 23 23 22 22 21 20 20
20 20 20 20 20 20 21 21 21 22 22 22 23 23 24 24 24 24 24 24 24 24 24 24 24 24 24 25 25 25 25 25 25 25 25 24 23 22 22 21 20 19 18